DateTimeUTC,F1_A11,F1_S11,BsB_S11,BsG_S11,BsR_S11,BbsB_S11,BbsG_S11,BbsR_S11,BaB_A11,BaG_A11,BaR_A11,Tu_S11,T_S11,Uu_S11,U_S11,P_S11,T1_A11
2021-10-04T21:00:00Z,00000200,21000000,,,,,,,0001.15,0001.29,0001.01,16.2,23.5,,00.0,0668.5,30.7
2021-10-04T21:01:00Z,00000200,21000000,,,,,,,0001.28,0001.02,0000.98,16.2,23.5,,00.0,0668.5,30.7
2021-10-04T21:02:00Z,00000200,21000000,,,,,,,0001.14,0000.84,0000.85,16.2,23.5,,00.0,0668.4,30.7
2021-10-04T21:03:00Z,00000200,61000000,,,,,,,0147.31,0134.94,0106.61,16.2,23.5,,00.0,0668.4,30.7
2021-10-04T21:04:00Z,00000200,41000000,0016.12,0012.92,0008.20,0003.15,0003.05,0002.26,0238.12,0219.91,0174.70,16.5,23.4,,00.0,0669.4,30.7
2021-10-04T21:05:00Z,00000200,01000000,0016.16,0012.43,0007.65,0003.41,0002.59,0002.62,0231.08,0213.41,0169.30,16.7,23.3,,00.0,0669.5,30.7
2021-10-04T21:06:00Z,00000200,01000000,0013.80,0010.15,0006.78,0002.28,0002.30,0001.88,0202.06,0186.81,0148.74,16.7,23.3,,00.0,0669.5,30.7
2021-10-04T21:07:00Z,00000200,01000000,0010.67,0007.78,0005.00,0001.77,0001.90,0001.22,0149.05,0137.61,0109.22,16.8,23.3,,00.0,0669.5,30.8
2021-10-04T21:08:00Z,00000200,01000000,0008.41,0006.55,0003.93,0001.71,0001.66,0001.02,0122.73,0113.69,0090.86,16.8,23.4,,00.0,0669.5,30.8
2021-10-04T21:09:00Z,00000200,01000000,0004.48,0003.12,0002.43,0000.79,0000.51,0000.48,0066.40,0061.28,0048.85,16.9,23.4,,00.0,0669.5,30.8
2021-10-04T21:10:00Z,00000200,01000000,0001.14,0000.10,0000.61,0000.10,0000.19,0000.08,0011.93,0010.81,0008.79,16.9,23.4,,00.0,0669.5,30.8
2021-10-04T21:11:00Z,00000200,01000000,0000.28,0000.10,-000.01,-000.30,0000.32,-000.05,0001.86,0002.08,0001.29,16.8,23.4,,00.0,0669.5,30.8
2021-10-04T21:12:00Z,00000200,01000000,-000.51,0000.18,0000.24,0000.16,-000.00,-000.10,0001.70,0001.21,0000.88,16.7,23.3,,00.0,0669.5,30.7
2021-10-04T21:13:00Z,00000200,01000000,-000.17,0000.30,0000.37,-000.71,0000.05,0000.03,0000.96,0001.01,0000.97,16.6,23.3,,00.0,0669.5,30.7
2021-10-04T21:14:00Z,00000200,01000000,0000.66,0000.06,0000.34,-000.26,0000.17,0000.07,0001.19,0001.16,0001.18,16.5,23.2,,00.0,0669.5,30.7
2021-10-04T21:15:00Z,00000200,01000000,-000.11,-000.24,0000.16,-000.18,0000.02,-000.07,0002.42,0002.08,0001.34,16.5,23.2,,00.0,0669.5,30.7
2021-10-04T21:16:00Z,00000200,01000000,0003.29,0001.95,0001.40,0000.33,0000.44,0000.13,0033.00,0030.44,0024.03,16.5,23.2,,00.0,0669.5,30.7
2021-10-04T21:17:00Z,00000200,01000000,0012.52,0008.91,0005.31,0002.48,0002.16,0001.38,0152.61,0140.81,0111.90,16.6,23.2,,00.0,0669.5,30.7
2021-10-04T21:18:00Z,00000200,01000000,0012.62,0009.32,0006.21,0002.68,0002.05,0001.42,0172.29,0159.21,0126.82,16.6,23.2,,00.0,0669.5,30.7
2021-10-04T21:19:00Z,00000200,01000000,0012.82,0009.21,0006.25,0002.41,0002.18,0002.00,0172.79,0159.63,0128.08,16.7,23.2,,00.0,0669.5,30.7
2021-10-04T21:20:00Z,00000200,01000000,0014.99,0010.76,0006.91,0003.24,0002.56,0001.62,0192.98,0178.55,0142.64,16.7,23.3,,00.0,0669.5,30.7
2021-10-04T21:21:00Z,00000200,01000000,0010.71,0008.25,0005.29,0002.48,0001.85,0001.66,0151.47,0140.50,0112.25,16.8,23.3,,00.0,0669.5,30.7
2021-10-04T21:22:00Z,00000200,01000000,0010.68,0008.21,0005.41,0001.97,0001.93,0001.38,0150.01,0138.76,0111.33,16.8,23.3,,00.0,0669.5,30.8
2021-10-04T21:23:00Z,00000200,01000000,0010.00,0007.74,0005.04,0002.18,0001.86,0001.55,0138.05,0127.99,0102.55,16.8,23.3,,00.0,0669.5,30.7
2021-10-04T21:24:00Z,00000200,01000000,0008.82,0006.62,0004.42,0002.02,0001.61,0001.24,0118.62,0109.45,0087.71,16.7,23.3,,00.0,0669.5,30.7
2021-10-04T21:25:00Z,00000200,01000000,0008.91,0006.28,0003.95,0001.49,0001.23,0001.20,0109.73,0102.30,0081.99,16.6,23.2,,00.0,0669.5,30.7
2021-10-04T21:26:00Z,00000200,01000000,0005.05,0003.55,0002.34,0001.69,0000.85,0000.31,0067.39,0062.54,0050.31,16.5,23.2,,00.0,0669.4,30.7
2021-10-04T21:27:00Z,00000200,01000000,0000.76,0001.59,0001.03,-000.20,0000.29,0000.30,0024.64,0023.02,0017.87,16.4,23.1,,00.0,0669.4,30.7
2021-10-04T21:28:00Z,00000200,01000000,0001.43,0001.62,0000.87,0000.90,0000.51,0000.39,0020.31,0018.49,0015.28,16.4,23.1,,00.0,0669.4,30.7
2021-10-04T21:29:00Z,00000200,01000000,0001.54,0000.49,0000.31,0000.62,-000.17,-000.25,0009.52,0008.91,0006.85,16.3,23.1,,00.0,0669.4,30.7
2021-10-04T21:30:00Z,00000200,01000000,0002.06,0001.29,0001.08,0000.70,0000.32,0000.02,0028.17,0026.20,0021.14,16.3,23.0,,00.0,0669.4,30.7
2021-10-04T21:31:00Z,00000200,01000000,0003.78,0002.43,0001.72,0000.42,0000.44,0000.27,0040.80,0037.66,0029.86,16.3,23.0,,00.0,0669.4,30.7
2021-10-04T21:32:00Z,00000200,01000000,0006.44,0005.08,0003.37,0001.02,0001.42,0000.81,0078.35,0072.58,0058.51,16.3,23.0,,00.0,0669.5,30.7
2021-10-04T21:33:00Z,00000200,01000000,0005.86,0004.71,0002.85,0001.45,0001.08,0000.59,0077.81,0071.93,0058.41,16.3,23.0,,00.0,0669.5,30.7
2021-10-04T21:34:00Z,00000200,01000000,0008.14,0006.25,0003.69,0001.45,0001.62,0000.74,0099.66,0092.85,0074.54,16.4,23.0,,00.0,0669.5,30.7
2021-10-04T21:35:00Z,00000200,01000000,0009.02,0005.58,0004.03,0000.77,0001.42,0001.16,0105.21,0097.76,0078.84,16.5,23.1,,00.0,0669.5,30.7
2021-10-04T21:36:00Z,00000200,01000000,0007.46,0005.99,0003.51,0001.59,0001.23,0001.19,0099.60,0092.33,0074.46,16.5,23.1,,00.0,0669.5,30.7
2021-10-04T21:37:00Z,00000200,01000000,0011.27,0007.87,0005.46,0002.05,0002.06,0001.47,0131.59,0122.15,0098.03,16.6,23.1,,00.0,0669.5,30.7
2021-10-04T21:38:00Z,00000200,01000000,0010.93,0008.39,0005.64,0002.48,0001.88,0001.49,0142.71,0132.62,0107.01,16.6,23.1,,00.0,0669.5,30.7
2021-10-04T21:39:00Z,00000200,01000000,0012.12,0008.94,0005.83,0002.29,0002.17,0001.58,0151.82,0141.15,0114.14,16.6,23.1,,00.0,0669.5,30.7
2021-10-04T21:40:00Z,00000200,01000000,0013.17,0009.97,0006.77,0002.69,0002.47,0001.51,0164.33,0152.80,0123.41,16.5,23.1,,00.0,0669.5,30.7
2021-10-04T21:41:00Z,00000200,01000000,0011.40,0007.28,0004.91,0002.21,0001.90,0001.25,0126.95,0117.95,0094.93,16.5,23.1,,00.0,0669.5,30.7
2021-10-04T21:42:00Z,00000200,01000000,0009.08,0007.27,0005.08,0002.41,0001.62,0001.42,0125.78,0116.57,0093.97,16.4,23.1,,00.0,0669.5,30.7
2021-10-04T21:43:00Z,00000200,01000000,0006.53,0005.21,0002.99,0001.36,0001.30,0000.65,0093.35,0086.83,0070.28,16.3,23.0,,00.0,0669.5,30.7
2021-10-04T21:44:00Z,00000200,01000000,0001.78,0001.01,0000.81,0000.28,0000.44,0000.14,0020.20,0018.98,0015.25,16.2,23.0,,00.0,0669.5,30.7
2021-10-04T21:45:00Z,00000200,01000000,0001.11,0000.67,0000.54,0000.09,-000.39,0000.13,0016.18,0015.12,0012.23,16.2,22.9,,00.0,0669.5,30.7
2021-10-04T21:46:00Z,00000200,01000000,0001.48,0001.58,0000.83,0000.92,0000.18,-000.07,0023.57,0021.51,0017.36,16.2,22.9,,00.0,0669.5,30.7
2021-10-04T21:47:00Z,00000200,01000000,0003.26,0002.43,0001.81,0000.36,0000.63,0000.69,0042.64,0039.62,0031.70,16.2,22.9,,00.0,0669.5,30.7
2021-10-04T21:48:00Z,00000200,01000000,0003.67,0001.96,0001.67,0001.03,0000.58,0000.48,0043.89,0040.96,0033.22,16.3,23.0,,00.0,0669.5,30.7
2021-10-04T21:49:00Z,00000200,01000000,0003.09,0002.19,0001.60,0000.78,0000.62,0000.25,0038.03,0035.30,0028.48,16.3,23.0,,00.0,0669.5,30.7
2021-10-04T21:50:00Z,00000200,01000000,0001.48,0000.85,0000.67,-000.18,0000.20,-000.02,0015.12,0013.74,0011.44,16.4,23.0,,00.0,0669.5,30.7
2021-10-04T21:51:00Z,00000200,01000000,-000.23,0000.20,0000.09,0000.20,0000.09,-000.17,0003.07,0003.24,0002.44,16.5,23.0,,00.0,0669.5,30.7
2021-10-04T21:52:00Z,00000200,01000000,-000.68,0000.10,0000.06,-000.20,0000.28,0000.16,0001.15,0001.26,0000.99,16.5,23.0,,00.0,0669.5,30.7
2021-10-04T21:53:00Z,00000200,01000000,0000.16,-000.05,0000.28,-000.21,0000.50,0000.01,0001.30,0001.04,0000.84,16.6,23.0,,00.0,0669.5,30.7
2021-10-04T21:54:00Z,00000200,01000000,-000.01,0000.23,0000.10,0000.34,-000.23,-000.24,0004.20,0003.61,0002.89,16.6,23.1,,00.0,0669.5,30.7
2021-10-04T21:55:00Z,00000200,01000000,0000.80,0000.44,0000.25,-000.15,-000.10,0000.18,0005.60,0005.57,0004.39,16.7,23.1,,00.0,0669.5,30.7
2021-10-04T21:56:00Z,00000200,01000000,0001.72,0001.25,0000.92,0000.26,0000.37,0000.40,0019.63,0017.81,0014.30,16.6,23.1,,00.0,0669.5,30.7
2021-10-04T21:57:00Z,00000200,41000000,,,,,,,0008.75,0008.63,0007.01,16.7,23.2,,00.0,0669.5,30.7
2021-10-04T21:58:00Z,00000200,61000000,,,,,,,0001.12,0000.70,0001.01,16.2,23.2,,00.0,0668.5,30.7
2021-10-04T21:59:00Z,00000200,21000000,,,,,,,0001.15,0001.31,0000.54,16.1,23.3,,00.0,0668.4,30.7
